Moses Lake, WA
on Saturday, February 16, 2013

Saturday
Previous Day Next Day
Daily Summary
 ActualAverageRecord
Temperature
Mean Temperature °F 36°F  
Max Temperature 53°F 44°F 62°F (1982)
Min Temperature 26°F 27°F 15°F (1985)
Degree Days
Heating Degree Days 25 30  
Month to date heating degree days 450 499  
Since 1 July heating degree days 3804 4173  
Cooling Degree Days 0 0  
Month to date cooling degree days 0 0  
Year to date cooling degree days 0 0  
Moisture
Dew Point 28°F   
Average Humidity 64    
Maximum Humidity 92    
Minimum Humidity 36    
Precipitation
Precipitation 0.00 in 0.02 in 0.29 in (2004)
Month to date precipitation 0.00 0.50  
Year to date precipitation 0.28 1.64  
Wind
Wind Speed 7 mph   
Max Wind Speed 22 mph   
Max Gust Speed 26 mph   
Visibility 10 miles   
Events     

Key: T is trace of precipitation, MM is missing value
Source: NWS Daily Summary
Time(PST)TemperatureDew PointHumidity Pressure Visibility Wind DirectionWind SpeedGust SpeedPrecipitationEvents Conditions
12:52 AM 30.2°F 26.6°F 86% 30.23 in 10.0 miles Calm Calm - N/A   Clear
1:52 AM 30.0°F 26.1°F 85% 30.24 in 10.0 miles North 5.8 mph - N/A   Clear
2:52 AM 30.0°F 26.1°F 85% 30.22 in 10.0 miles NNE 5.8 mph - N/A   Clear
3:52 AM 28.4°F 24.8°F 86% 30.18 in 10.0 miles North 5.8 mph - N/A   Clear
4:52 AM 27.0°F 24.1°F 89% 30.19 in 10.0 miles North 4.6 mph - N/A   Clear
5:49 AM 26.6°F 24.8°F 93% 30.14 in 10.0 miles North 4.6 mph - N/A   Partly Cloudy
5:52 AM 27.0°F 24.1°F 89% 30.17 in 10.0 miles NNE 4.6 mph - N/A   Partly Cloudy
6:52 AM 27.0°F 23.0°F 85% 30.17 in 10.0 miles Calm Calm - N/A   Clear
7:52 AM 28.9°F 25.0°F 85% 30.16 in 10.0 miles Calm Calm - N/A   Clear
8:52 AM 32.0°F 28.0°F 85% 30.16 in 10.0 miles Calm Calm - N/A   Scattered Clouds
9:52 AM 35.1°F 28.9°F 78% 30.14 in 10.0 miles Calm Calm - N/A   Scattered Clouds
10:52 AM 37.9°F 30.9°F 76% 30.11 in 10.0 miles SSE 4.6 mph - N/A   Scattered Clouds
11:52 AM 41.0°F 33.1°F 73% 30.09 in 10.0 miles South 4.6 mph - N/A   Overcast
12:52 PM 44.1°F 34.0°F 68% 30.05 in 10.0 miles South 5.8 mph - N/A   Scattered Clouds
1:52 PM 48.0°F 34.0°F 58% 30.03 in 10.0 miles WSW 3.5 mph - N/A   Partly Cloudy
2:52 PM 48.9°F 35.1°F 59% 30.00 in 10.0 miles West 3.5 mph - N/A   Clear
3:52 PM 53.1°F 33.1°F 47% 29.99 in 10.0 miles West 6.9 mph - N/A   Clear
4:52 PM 50.0°F 25.0°F 38% 30.00 in 10.0 miles West 17.3 mph - N/A   Partly Cloudy
5:52 PM 45.0°F 25.0°F 46% 30.00 in 10.0 miles West 13.8 mph - N/A   Clear
6:52 PM 42.1°F 25.0°F 51% 30.01 in 10.0 miles WNW 11.5 mph - N/A   Partly Cloudy
7:52 PM 42.1°F 27.0°F 55% 30.01 in 10.0 miles WSW 10.4 mph - N/A   Clear
8:52 PM 43.0°F 27.0°F 53% 30.01 in 10.0 miles West 15.0 mph - N/A   Clear
9:52 PM 41.0°F 27.0°F 57% 30.02 in 10.0 miles WSW 11.5 mph - N/A   Clear
10:52 PM 41.0°F 27.0°F 57% 30.03 in 10.0 miles West 11.5 mph - N/A   Clear
11:52 PM 37.9°F 26.1°F 62% 30.03 in 10.0 miles WSW 15.0 mph - N/A   Clear
Moon Phase
Feb. 16 Feb. 17 Feb. 25 Mar. 04 Mar. 11
Sunrise:06:59 AM (PST) Moon Rise:09:46 AM (PST)2/16
Sunset:05:23 PM (PST) Moon Set:No Moon Set/

Copyright © 2014 The Weather Underground, Inc.